TimeMST,TemperatureF,Dew PointF,Humidity,Sea Level PressureIn,VisibilityMPH,Wind Direction,Wind SpeedMPH,Gust SpeedMPH,PrecipitationIn,Events,Conditions,WindDirDegrees,DateUTC
12:15 AM,19.4,17.6,93,29.96,10.0,Calm,Calm,-,N/A,,Clear,0,2013-02-19 07:15:00
12:35 AM,19.4,17.6,93,29.95,10.0,Calm,Calm,-,N/A,,Clear,0,2013-02-19 07:35:00
12:55 AM,19.4,19.4,100,29.94,10.0,North,3.5,-,N/A,,Clear,10,2013-02-19 07:55:00
1:15 AM,19.4,15.8,86,29.93,10.0,NNW,3.5,-,N/A,,Clear,340,2013-02-19 08:15:00
1:35 AM,19.4,15.8,86,29.92,10.0,NNW,4.6,-,N/A,,Clear,330,2013-02-19 08:35:00
1:55 AM,17.6,15.8,93,29.92,10.0,Calm,Calm,-,N/A,,Clear,0,2013-02-19 08:55:00
2:15 AM,17.6,15.8,93,29.91,10.0,North,4.6,-,N/A,,Clear,10,2013-02-19 09:15:00
2:35 AM,21.2,15.8,80,29.90,10.0,North,6.9,-,N/A,,Clear,350,2013-02-19 09:35:00
2:55 AM,23.0,17.6,80,29.89,10.0,Calm,Calm,-,N/A,,Clear,0,2013-02-19 09:55:00
3:15 AM,24.8,15.8,69,29.88,10.0,Calm,Calm,-,N/A,,Clear,0,2013-02-19 10:15:00
3:35 AM,26.6,17.6,69,29.87,10.0,NE,4.6,-,N/A,,Clear,50,2013-02-19 10:35:00
3:55 AM,23.0,17.6,80,29.86,10.0,ENE,4.6,-,N/A,,Clear,70,2013-02-19 10:55:00
4:15 AM,23.0,15.8,74,29.85,10.0,Calm,Calm,-,N/A,,Clear,0,2013-02-19 11:15:00
4:55 AM,24.8,15.8,69,29.84,10.0,Calm,Calm,-,N/A,,Clear,0,2013-02-19 11:55:00
5:15 AM,28.4,15.8,59,29.83,10.0,SSE,17.3,-,N/A,,Clear,150,2013-02-19 12:15:00
5:35 AM,30.2,15.8,55,29.83,10.0,SE,15.0,-,N/A,,Clear,130,2013-02-19 12:35:00
5:55 AM,30.2,15.8,55,29.83,10.0,SE,13.8,-,N/A,,Clear,130,2013-02-19 12:55:00
6:15 AM,28.4,12.2,51,29.83,10.0,East,4.6,-,N/A,,Clear,80,2013-02-19 13:15:00
6:35 AM,30.2,15.8,55,29.83,10.0,ESE,8.1,16.1,N/A,,Clear,110,2013-02-19 13:35:00
6:47 AM,30.2,15.8,55,29.83,15.0,SE,17.3,-,N/A,,Mostly Cloudy,130,2013-02-19 13:47:00
7:56 AM,32.0,17.6,55,29.80,15.0,SE,29.9,-,N/A,,Mostly Cloudy,140,2013-02-19 14:56:00
9:48 AM,37.4,21.2,52,29.80,15.0,SE,20.7,-,N/A,,Mostly Cloudy,130,2013-02-19 16:48:00
10:47 AM,39.2,21.2,49,29.77,15.0,SE,19.6,27.6,N/A,,Scattered Clouds,140,2013-02-19 17:47:00
11:55 AM,42.8,23.0,46,29.75,15.0,SE,13.8,-,N/A,,Partly Cloudy,130,2013-02-19 18:55:00
12:50 PM,44.6,24.8,46,29.71,15.0,SE,13.8,-,N/A,,Scattered Clouds,140,2013-02-19 19:50:00
1:54 PM,46.4,23.0,40,29.67,15.0,SE,9.2,-,N/A,,Scattered Clouds,140,2013-02-19 20:54:00
2:50 PM,46.4,21.2,37,29.64,15.0,Variable,4.6,-,N/A,,Mostly Cloudy,0,2013-02-19 21:50:00
3:50 PM,44.6,19.4,37,29.62,15.0,Variable,4.6,-,N/A,,Overcast,0,2013-02-19 22:50:00
6:55 PM,39.2,21.2,49,29.61,15.0,ESE,17.3,-,N/A,,Mostly Cloudy,120,2013-02-20 01:55:00
8:48 PM,37.4,19.4,48,29.60,15.0,ESE,17.3,23.0,N/A,,Scattered Clouds,120,2013-02-20 03:48:00
8:55 PM,37.4,19.4,48,29.60,10.0,SE,18.4,-,N/A,,Clear,140,2013-02-20 03:55:00
9:15 PM,37.4,21.2,52,29.60,10.0,SSE,18.4,-,N/A,,Clear,150,2013-02-20 04:15:00
9:35 PM,37.4,21.2,52,29.60,10.0,SSE,12.7,-,N/A,,Mostly Cloudy,150,2013-02-20 04:35:00
9:55 PM,37.4,21.2,52,29.61,10.0,SSE,20.7,-,N/A,,Scattered Clouds,150,2013-02-20 04:55:00
10:15 PM,37.4,21.2,52,29.61,10.0,SSE,18.4,-,N/A,,Scattered Clouds,150,2013-02-20 05:15:00
10:35 PM,35.6,21.2,56,29.61,10.0,SSE,15.0,-,N/A,,Partly Cloudy,150,2013-02-20 05:35:00
10:55 PM,37.4,19.4,48,29.61,10.0,ESE,5.8,-,N/A,,Mostly Cloudy,110,2013-02-20 05:55:00
11:15 PM,39.2,17.6,42,29.60,10.0,East,4.6,-,N/A,,Scattered Clouds,80,2013-02-20 06:15:00
11:35 PM,37.4,19.4,48,29.60,10.0,SE,10.4,16.1,N/A,,Mostly Cloudy,130,2013-02-20 06:35:00
11:55 PM,37.4,19.4,48,29.60,10.0,SE,6.9,-,N/A,,Mostly Cloudy,130,2013-02-20 06:55:00